User: anonymous   Login
Location: Unspecified
(0.0000°N, 0.0000°E)
Time: 05:48:12
(UTC+00:00)
Language:

STARLINK-33582 - Orbit

View from above orbital plane
View from above orbital plane
View from above satellite
View from above satellite

Ground track
Ground track

The orbit is defined by the following mean orbital elements,

1 62783U          26145.48806762 +.00000000 +00000-0 +19085-2 0 00003
2 62783  53.1587 324.0088 0002821 221.1021 138.9771 15.37004218    01
Epoch (UTC): 25 May 2026 11:42:49
Eccentricity: 0.0002821
inclination: 53.1587°
perigee height: 453 km
apogee height: 457 km
right ascension of ascending node: 324.0088°
argument of perigee: 221.1021°
revolutions per day: 15.37004218
mean anomaly at epoch: 138.9771°

The dashed part of the orbit path shows where the satellite is in the earth's shadow,  

DLR